Powrót do katalogu

COSMOS 374 DEB

AktywnyUNKNOWN
NORAD 4823·DEBRIS·🇷🇺 Russia

Wystrzelony Oct 23, 1970 z Baikonur Cosmodrome

Loading…

Następne Przeloty (najbliższe 24 godziny)

TLE

ŚwieżeSource: Space-Track

Epoka: Sep 14, 2026, 09:04 UTC

1 04823U 70089T   26257.37808855 -.00000035  00000-0  36019-4 0  9999
2 04823  63.0181  41.9079 0945547  28.1313 336.7586 12.66351529547914

Śledź COSMOS 374 DEB w czasie rzeczywistym z AllMySat

Download on the App Store